Regional Weather Roundup
Issued by NWS Jackson, KY

Home | Current Version | Previous Version | Text Only | Print | Product List | Glossary Off
Versions: 1 2 3 4 5 6 7 8 9 10 11 12 13 14 15 16 17 18 19 20 21 22 23 24 25 26 27 28 29 30 31 32 33 34 35 36 37 38 39 40 41 42 43 44 45 46 47 48 49 50

000
ASUS43 KJKL 281310
RWRJKL

EAST KENTUCKY HOURLY WEATHER ROUNDUP
NATIONAL WEATHER SERVICE JACKSON KY
900 AM EDT WED JUN 28 2017

NOTE: "FAIR" INDICATES FEW OR NO CLOUDS BELOW 12,000 FEET WITH
NO SIGNIFICANT WEATHER AND/OR OBSTRUCTIONS TO VISIBILITY.

* THESE REPORTS ARE NOT UNDER NWS QUALITY CONTROL AND MAY NOT
  REPORT WEATHER SUCH AS PRECIPITATION AND FOG.

KYZ079-080-083-085-087-088-110-112-115-119-120-281400
...EASTERN KENTUCKY...

CITY           SKY/WX    TMP DP  RH WIND       PRES   REMARKS
JACKSON        SUNNY     62  51  67 S3        30.22R
LONDON         SUNNY     61  53  75 E3        30.22R
SOMERSET*      SUNNY     61  52  72 CALM      30.22R
MONTICELLO*    SUNNY     67  56  67 NE7       30.21R
WILLIAMSBURG*  SUNNY     63  57  82 SE5       30.22R
MIDDLESBORO*   SUNNY     57  53  84 CALM      30.25R
HARLAN APT*    SUNNY     55  50  82 CALM      30.25R
PIKE CO APT*     N/A     58  54  84 S5        30.23R
BIG SANDY APT* SUNNY     62  55  77 CALM      30.22R
MOREHEAD APT*  SUNNY     64  54  68 CALM      30.23R
ASHLAND*       SUNNY     61  59  94 CALM      30.19R
$$

KYZ035-036-041-042-044-050-067-078-099-281400
...CENTRAL KENTUCKY...

CITY           SKY/WX    TMP DP  RH WIND       PRES   REMARKS
MT STERLING*   SUNNY     66  52  59 SW3       30.22R
FLEMING/MASON* SUNNY     65  54  66 S7        30.22R
DANVILLE*      SUNNY     64  54  68 S3        30.20S
LEXINGTON      SUNNY     67  52  58 SE5       30.20R
FRANKFORT      SUNNY     66  54  65 SE5       30.17R
LOUISVILLE     CLOUDY    66  55  67 SE7       30.15S
LEBANON*         N/A     68  54  60 S8        30.18S
GLASGOW*       SUNNY     67  56  67 CALM      30.16S
BOWLING GREEN  MOSUNNY   66  59  78 E3        30.15R
$$

KYZ091>093-OHZ055-061-077-WVZ005-015-034-035-042-281400
...SOUTHERN OHIO/WEST VIRGINIA...

CITY           SKY/WX    TMP DP  RH WIND       PRES   REMARKS
COVINGTON      PTSUNNY   66  55  67 S9        30.17R
COLUMBUS       SUNNY     63  53  70 CALM      30.18R
DAYTON         MOSUNNY   65  51  60 S8        30.17S
WILMINGTON     SUNNY     65  55  70 S6        30.18R
HUNTINGTON     SUNNY     61  55  81 CALM      30.21R
CHARLESTON     SUNNY     60  53  77 CALM      30.22R
PINEVILLE*     SUNNY     55  54  95 MISG      30.30R
BECKLEY        SUNNY     61  49  64 CALM      30.25R
BLUEFIELD      SUNNY     59  48  67 CALM      30.26R
LOGAN CO APT*    N/A     61  55  82 CALM      30.24R
$$

VAZ002-007-008-TNZ017-027-036-066-071-281400
...SOUTHWEST VIRGINIA/EAST TENNESSEE...

CITY           SKY/WX    TMP DP  RH WIND       PRES   REMARKS
WISE*          SUNNY     64  46  52 CALM      30.29R
JONESVILLE*      N/A     63  54  72 CALM      30.25R
ABINGDON*      SUNNY     63  53  68 NE3       30.25R
BRISTOL        SUNNY     61  53  75 CALM      30.24R
MORRISTOWN*    SUNNY     64  54  68 NE7       30.20R
SEVIERVILLE*   SUNNY     61  54  77 CALM      30.21R
KNOXVILLE      MOSUNNY   63  55  75 NE6       30.18R
LAFOLLETTE*    SUNNY     63  57  82 CALM      30.25R
OAK RIDGE      SUNNY     66  56  70 VRB3      30.22R
CROSSVILLE     SUNNY     64  54  69 CALM      30.22R
NASHVILLE      MOSUNNY   68  59  73 CALM      30.16S
$$

...KEY TO REMARKS...
VSB - VISIBILITY IN MILES
WCI - WIND CHILL INDEX
HX  - HEAT INDEX

$$



USA.gov is the U.S. government's official web portal to all federal, state and local government web resources and services.